Time,TemperatureF,DewpointF,PressureIn,WindDirection,WindDirectionDegrees,WindSpeedMPH,WindSpeedGustMPH,Humidity,HourlyPrecipIn,Conditions,Clouds,dailyrainin,SoftwareType,DateUTC
2012-12-08 00:00:00,54.1,53.6,29.83,NNE,30,0.0,0.0,98,0.00,,,0.00,VWS V13.01,2012-12-08 06:00:00,
2012-12-08 00:05:00,53.9,53.4,29.83,NNE,30,0.0,0.0,98,0.00,,,0.00,VWS V13.01,2012-12-08 06:05:00,
2012-12-08 00:10:00,53.9,53.4,29.83,NNE,30,0.0,0.0,98,0.00,,,0.00,VWS V13.01,2012-12-08 06:10:00,
2012-12-08 00:15:00,53.9,53.7,29.83,NNE,30,0.0,0.0,99,0.00,,,0.00,VWS V13.01,2012-12-08 06:15:00,
2012-12-08 00:20:00,53.8,53.8,29.83,NNE,30,0.0,0.0,100,0.00,,,0.00,VWS V13.01,2012-12-08 06:20:00,
2012-12-08 00:25:00,53.6,53.6,29.83,NNE,30,0.0,0.0,100,0.00,,,0.00,VWS V13.01,2012-12-08 06:25:00,
2012-12-08 00:30:00,53.6,53.6,29.83,NNE,30,0.0,0.0,100,0.00,,,0.00,VWS V13.01,2012-12-08 06:30:00,
2012-12-08 00:35:00,53.4,53.4,29.83,NNE,30,0.0,0.0,100,0.00,,,0.00,VWS V13.01,2012-12-08 06:35:00,
2012-12-08 00:40:00,53.0,53.0,29.83,NNE,30,0.0,0.0,100,0.00,,,0.00,VWS V13.01,2012-12-08 06:40:00,
2012-12-08 00:45:00,52.9,52.9,29.83,NNE,30,0.0,0.0,100,0.00,,,0.00,VWS V13.01,2012-12-08 06:45:00,
2012-12-08 00:50:00,53.0,53.0,29.83,NNE,30,0.0,0.0,100,0.00,,,0.00,VWS V13.01,2012-12-08 06:50:00,
2012-12-08 00:55:00,52.9,52.9,29.83,NNE,30,0.0,0.0,100,0.00,,,0.00,VWS V13.01,2012-12-08 06:55:00,
2012-12-08 01:00:00,52.7,52.7,29.83,NNE,30,0.0,0.0,100,0.00,,,0.00,VWS V13.01,2012-12-08 07:00:00,
2012-12-08 01:05:00,52.3,52.3,29.83,NNE,30,0.0,0.0,100,0.00,,,0.00,VWS V13.01,2012-12-08 07:05:00,
2012-12-08 01:10:00,52.5,52.5,29.83,NNE,30,0.0,0.0,100,0.00,,,0.00,VWS V13.01,2012-12-08 07:10:00,
2012-12-08 01:15:00,52.3,52.3,29.83,North,356,0.0,0.0,100,0.00,,,0.00,VWS V13.01,2012-12-08 07:15:00,
2012-12-08 01:20:00,52.1,52.1,29.83,North,356,0.0,0.0,100,0.00,,,0.00,VWS V13.01,2012-12-08 07:20:00,
2012-12-08 01:25:00,52.0,52.0,29.83,North,356,0.0,0.0,100,0.00,,,0.00,VWS V13.01,2012-12-08 07:25:00,
2012-12-08 01:30:00,51.6,51.6,29.83,ENE,77,0.0,0.0,100,0.00,,,0.00,VWS V13.01,2012-12-08 07:30:00,
2012-12-08 01:35:00,51.4,51.4,29.83,ENE,77,0.0,0.0,100,0.00,,,0.00,VWS V13.01,2012-12-08 07:35:00,
2012-12-08 01:40:00,51.4,51.4,29.83,ENE,77,0.0,0.0,100,0.00,,,0.00,VWS V13.01,2012-12-08 07:40:00,
2012-12-08 01:45:00,51.4,51.4,29.83,ENE,77,0.0,0.0,100,0.00,,,0.00,VWS V13.01,2012-12-08 07:45:00,
2012-12-08 01:50:00,51.1,51.1,29.83,ENE,77,0.0,0.0,100,0.00,,,0.00,VWS V13.01,2012-12-08 07:50:00,
2012-12-08 01:55:00,51.2,51.2,29.83,ENE,77,0.0,0.0,100,0.00,,,0.00,VWS V13.01,2012-12-08 07:55:00,
2012-12-08 02:00:00,51.4,51.4,29.83,ENE,77,0.0,0.0,100,0.00,,,0.00,VWS V13.01,2012-12-08 08:00:00,
2012-12-08 02:05:00,51.4,51.4,29.83,ENE,77,0.0,0.0,100,0.00,,,0.00,VWS V13.01,2012-12-08 08:05:00,
2012-12-08 02:10:00,51.1,51.1,29.83,ENE,77,0.0,0.0,100,0.00,,,0.00,VWS V13.01,2012-12-08 08:10:00,
2012-12-08 02:15:00,50.7,50.7,29.83,ENE,77,0.0,0.0,100,0.00,,,0.00,VWS V13.01,2012-12-08 08:15:00,
2012-12-08 02:20:00,50.5,50.5,29.83,ENE,77,0.0,0.0,100,0.00,,,0.00,VWS V13.01,2012-12-08 08:20:00,
2012-12-08 02:25:00,50.5,50.5,29.83,ENE,77,0.0,0.0,100,0.00,,,0.00,VWS V13.01,2012-12-08 08:25:00,
2012-12-08 02:30:00,50.2,50.2,29.83,ENE,77,0.0,0.0,100,0.00,,,0.00,VWS V13.01,2012-12-08 08:30:00,
2012-12-08 02:35:00,50.2,50.2,29.83,ENE,77,0.0,0.0,100,0.00,,,0.00,VWS V13.01,2012-12-08 08:35:00,
2012-12-08 02:40:00,50.0,50.0,29.83,ENE,77,0.0,0.0,100,0.00,,,0.00,VWS V13.01,2012-12-08 08:40:00,
2012-12-08 02:45:00,50.0,50.0,29.83,ENE,77,0.0,0.0,100,0.00,,,0.00,VWS V13.01,2012-12-08 08:45:00,
2012-12-08 02:50:00,49.8,49.8,29.83,ENE,77,0.0,0.0,100,0.00,,,0.00,VWS V13.01,2012-12-08 08:50:00,
2012-12-08 02:55:00,49.8,49.8,29.83,North,1,0.0,0.0,100,0.00,,,0.00,VWS V13.01,2012-12-08 08:55:00,
2012-12-08 03:00:00,49.1,49.1,29.80,North,360,0.0,0.0,100,0.00,,,0.00,VWS V13.01,2012-12-08 09:00:00,
2012-12-08 03:05:00,49.1,49.1,29.80,North,360,0.0,0.0,100,0.00,,,0.00,VWS V13.01,2012-12-08 09:05:00,
2012-12-08 03:10:00,49.3,49.3,29.80,ESE,106,0.0,0.0,100,0.00,,,0.00,VWS V13.01,2012-12-08 09:10:00,
2012-12-08 03:15:00,49.4,49.4,29.83,SE,132,0.0,0.0,100,0.00,,,0.00,VWS V13.01,2012-12-08 09:15:00,
2012-12-08 03:20:00,49.3,49.3,29.83,SE,132,0.0,0.0,100,0.00,,,0.00,VWS V13.01,2012-12-08 09:20:00,
2012-12-08 03:25:00,49.4,49.4,29.83,WSW,255,0.0,0.0,100,0.00,,,0.00,VWS V13.01,2012-12-08 09:25:00,
2012-12-08 03:30:00,49.1,49.1,29.83,WSW,255,0.0,0.0,100,0.00,,,0.00,VWS V13.01,2012-12-08 09:30:00,
2012-12-08 03:35:00,49.1,49.1,29.83,WSW,255,0.0,0.0,100,0.00,,,0.00,VWS V13.01,2012-12-08 09:35:00,
2012-12-08 03:40:00,49.4,49.4,29.83,WSW,255,0.0,0.0,100,0.00,,,0.00,VWS V13.01,2012-12-08 09:40:00,
2012-12-08 03:45:00,49.4,49.4,29.83,WSW,255,0.0,0.0,100,0.00,,,0.00,VWS V13.01,2012-12-08 09:45:00,
2012-12-08 03:50:00,49.6,49.6,29.83,WSW,255,0.0,0.0,100,0.00,,,0.00,VWS V13.01,2012-12-08 09:50:00,
2012-12-08 03:55:00,49.6,49.6,29.83,WSW,255,0.0,0.0,100,0.00,,,0.00,VWS V13.01,2012-12-08 09:55:00,
2012-12-08 04:00:00,49.6,49.6,29.83,WSW,255,0.0,0.0,100,0.00,,,0.00,VWS V13.01,2012-12-08 10:00:00,
2012-12-08 04:05:00,49.8,49.8,29.83,WSW,255,0.0,0.0,100,0.00,,,0.00,VWS V13.01,2012-12-08 10:05:00,
2012-12-08 04:10:00,49.6,49.6,29.83,WSW,255,0.0,0.0,100,0.00,,,0.00,VWS V13.01,2012-12-08 10:10:00,
2012-12-08 04:14:00,49.8,49.8,29.83,WSW,255,0.0,0.0,100,0.00,,,0.00,VWS V13.01,2012-12-08 10:14:00,
2012-12-08 04:19:00,49.6,49.6,29.83,WSW,255,0.0,0.0,100,0.00,,,0.00,VWS V13.01,2012-12-08 10:19:00,
2012-12-08 04:24:00,49.6,49.6,29.83,WSW,255,0.0,0.0,100,0.00,,,0.00,VWS V13.01,2012-12-08 10:24:00,
2012-12-08 04:29:00,49.6,49.6,29.83,WSW,255,0.0,0.0,100,0.00,,,0.00,VWS V13.01,2012-12-08 10:29:00,
2012-12-08 04:35:00,49.6,49.6,29.83,WSW,255,0.0,0.0,100,0.00,,,0.00,VWS V13.01,2012-12-08 10:35:00,
2012-12-08 04:39:00,49.6,49.6,29.83,WSW,255,0.0,0.0,100,0.00,,,0.00,VWS V13.01,2012-12-08 10:39:00,
2012-12-08 04:44:00,49.4,49.4,29.83,WSW,255,0.0,0.0,100,0.00,,,0.00,VWS V13.01,2012-12-08 10:44:00,
2012-12-08 04:49:00,49.3,49.3,29.83,WSW,255,0.0,0.0,100,0.00,,,0.00,VWS V13.01,2012-12-08 10:49:00,
2012-12-08 04:54:00,49.1,49.1,29.83,WSW,255,0.0,0.0,100,0.00,,,0.00,VWS V13.01,2012-12-08 10:54:00,
2012-12-08 04:59:00,48.9,48.9,29.83,WNW,287,0.0,0.0,100,0.00,,,0.00,VWS V13.01,2012-12-08 10:59:00,
2012-12-08 05:04:00,48.9,48.9,29.83,WNW,287,0.0,0.0,100,0.00,,,0.00,VWS V13.01,2012-12-08 11:04:00,
2012-12-08 05:09:00,48.9,48.9,29.83,WNW,287,0.0,0.0,100,0.00,,,0.00,VWS V13.01,2012-12-08 11:09:00,
2012-12-08 05:14:00,48.9,48.9,29.83,WNW,287,0.0,0.0,100,0.00,,,0.00,VWS V13.01,2012-12-08 11:14:00,
2012-12-08 05:19:00,48.5,48.5,29.83,SW,224,0.0,0.0,100,0.00,,,0.00,VWS V13.01,2012-12-08 11:19:00,
2012-12-08 05:24:00,48.4,48.4,29.83,SW,224,0.0,0.0,100,0.00,,,0.00,VWS V13.01,2012-12-08 11:24:00,
2012-12-08 05:29:00,48.2,48.2,29.83,SW,224,0.0,0.0,100,0.00,,,0.00,VWS V13.01,2012-12-08 11:29:00,
2012-12-08 05:34:00,48.2,48.2,29.83,SW,224,0.0,0.0,100,0.00,,,0.00,VWS V13.01,2012-12-08 11:34:00,
2012-12-08 05:39:00,48.5,48.5,29.83,SW,224,0.0,0.0,100,0.00,,,0.00,VWS V13.01,2012-12-08 11:39:00,
2012-12-08 05:44:00,48.5,48.5,29.83,SW,224,0.0,0.0,100,0.00,,,0.00,VWS V13.01,2012-12-08 11:44:00,
2012-12-08 05:49:00,48.5,48.5,29.83,SW,224,0.0,0.0,100,0.00,,,0.00,VWS V13.01,2012-12-08 11:49:00,
2012-12-08 05:54:00,48.9,48.9,29.83,South,177,0.0,0.0,100,0.00,,,0.00,VWS V13.01,2012-12-08 11:54:00,
2012-12-08 05:59:00,48.9,48.9,29.86,South,177,0.0,0.0,100,0.00,,,0.00,VWS V13.01,2012-12-08 11:59:00,
2012-12-08 06:04:00,48.7,48.7,29.86,South,177,0.0,0.0,100,0.00,,,0.00,VWS V13.01,2012-12-08 12:04:00,
2012-12-08 06:09:00,48.7,48.7,29.86,South,177,0.0,0.0,100,0.00,,,0.00,VWS V13.01,2012-12-08 12:09:00,
2012-12-08 06:14:00,48.7,48.7,29.86,South,177,0.0,0.0,100,0.00,,,0.00,VWS V13.01,2012-12-08 12:14:00,
2012-12-08 06:19:00,48.9,48.9,29.86,South,177,0.0,0.0,100,0.00,,,0.00,VWS V13.01,2012-12-08 12:19:00,
2012-12-08 06:24:00,48.7,48.7,29.86,South,177,0.0,0.0,100,0.00,,,0.00,VWS V13.01,2012-12-08 12:24:00,
2012-12-08 06:29:00,48.7,48.7,29.86,South,177,0.0,0.0,100,0.00,,,0.00,VWS V13.01,2012-12-08 12:29:00,
2012-12-08 06:34:00,48.7,48.7,29.86,South,177,0.0,0.0,100,0.00,,,0.00,VWS V13.01,2012-12-08 12:34:00,
2012-12-08 06:39:00,48.9,48.9,29.86,South,177,0.0,0.0,100,0.00,,,0.00,VWS V13.01,2012-12-08 12:39:00,
2012-12-08 06:44:00,49.4,49.4,29.86,South,171,0.0,0.0,100,0.00,,,0.00,VWS V13.01,2012-12-08 12:44:00,
2012-12-08 06:49:00,49.6,49.6,29.86,South,184,0.0,0.0,100,0.00,,,0.00,VWS V13.01,2012-12-08 12:49:00,
2012-12-08 06:54:00,49.8,49.8,29.86,SSW,205,0.0,0.0,100,0.00,,,0.00,VWS V13.01,2012-12-08 12:54:00,
2012-12-08 06:59:00,50.2,50.2,29.86,SSW,205,0.0,0.0,100,0.00,,,0.00,VWS V13.01,2012-12-08 12:59:00,
2012-12-08 07:04:00,50.3,50.3,29.86,SSW,205,0.0,0.0,100,0.00,,,0.00,VWS V13.01,2012-12-08 13:04:00,
2012-12-08 07:09:00,50.3,50.3,29.86,SW,221,0.0,0.0,100,0.00,,,0.00,VWS V13.01,2012-12-08 13:09:00,
2012-12-08 07:14:00,50.5,50.5,29.86,West,262,0.0,0.0,100,0.00,,,0.00,VWS V13.01,2012-12-08 13:14:00,
2012-12-08 07:19:00,50.5,50.5,29.86,West,262,0.0,0.0,100,0.00,,,0.00,VWS V13.01,2012-12-08 13:19:00,
2012-12-08 07:24:00,50.3,50.3,29.86,SE,132,0.0,0.0,100,0.00,,,0.00,VWS V13.01,2012-12-08 13:24:00,
2012-12-08 07:29:00,50.3,50.3,29.86,SSE,155,0.0,0.0,100,0.00,,,0.00,VWS V13.01,2012-12-08 13:29:00,
2012-12-08 07:34:00,50.3,50.3,29.86,SSE,154,0.0,0.0,100,0.00,,,0.00,VWS V13.01,2012-12-08 13:34:00,
2012-12-08 07:39:00,50.5,50.5,29.86,South,171,2.7,3.1,100,0.00,,,0.00,VWS V13.01,2012-12-08 13:39:00,
2012-12-08 07:44:00,50.7,50.7,29.86,South,170,0.0,2.2,100,0.00,,,0.00,VWS V13.01,2012-12-08 13:44:00,
2012-12-08 07:49:00,50.9,50.9,29.86,South,170,0.0,0.0,100,0.00,,,0.00,VWS V13.01,2012-12-08 13:49:00,
2012-12-08 07:54:00,51.1,51.1,29.86,South,170,0.0,0.0,100,0.00,,,0.00,VWS V13.01,2012-12-08 13:54:00,
2012-12-08 07:59:00,51.1,51.1,29.86,South,170,0.0,0.0,100,0.00,,,0.00,VWS V13.01,2012-12-08 13:59:00,
2012-12-08 08:04:00,51.2,51.2,29.86,South,170,0.0,0.0,100,0.00,,,0.00,VWS V13.01,2012-12-08 14:04:00,
2012-12-08 08:09:00,51.2,51.2,29.86,South,170,0.0,0.0,100,0.00,,,0.00,VWS V13.01,2012-12-08 14:09:00,
2012-12-08 08:14:00,51.2,51.2,29.86,South,170,0.0,0.0,100,0.00,,,0.00,VWS V13.01,2012-12-08 14:14:00,
2012-12-08 08:19:00,51.4,51.4,29.86,SW,219,0.0,0.0,100,0.00,,,0.00,VWS V13.01,2012-12-08 14:19:00,
2012-12-08 08:24:00,51.4,51.4,29.86,SW,219,0.0,0.0,100,0.00,,,0.00,VWS V13.01,2012-12-08 14:24:00,
2012-12-08 08:29:00,51.6,51.6,29.86,SSW,194,0.0,0.0,100,0.00,,,0.00,VWS V13.01,2012-12-08 14:29:00,
2012-12-08 08:34:00,51.6,51.6,29.86,SSW,194,0.0,0.0,100,0.00,,,0.00,VWS V13.01,2012-12-08 14:34:00,
2012-12-08 08:39:00,51.4,51.4,29.86,SW,231,0.0,0.0,100,0.00,,,0.00,VWS V13.01,2012-12-08 14:39:00,
2012-12-08 08:44:00,51.6,51.6,29.86,SSW,196,0.0,0.0,100,0.00,,,0.00,VWS V13.01,2012-12-08 14:44:00,
2012-12-08 08:49:00,51.6,51.6,29.86,SSW,192,0.0,0.0,100,0.00,,,0.00,VWS V13.01,2012-12-08 14:49:00,
2012-12-08 08:54:00,51.6,51.6,29.86,South,185,0.0,0.0,100,0.00,,,0.00,VWS V13.01,2012-12-08 14:54:00,
2012-12-08 08:59:00,51.6,51.6,29.89,South,171,0.0,0.0,100,0.00,,,0.00,VWS V13.01,2012-12-08 14:59:00,
2012-12-08 09:04:00,51.6,51.6,29.89,South,169,2.7,4.9,100,0.00,,,0.00,VWS V13.01,2012-12-08 15:04:00,
2012-12-08 09:09:00,51.6,51.6,29.89,South,170,0.0,0.0,100,0.00,,,0.00,VWS V13.01,2012-12-08 15:09:00,
2012-12-08 09:14:00,51.8,51.8,29.89,SSW,205,0.0,0.0,100,0.00,,,0.00,VWS V13.01,2012-12-08 15:14:00,
2012-12-08 09:19:00,51.8,51.8,29.89,South,186,0.0,0.0,100,0.00,,,0.00,VWS V13.01,2012-12-08 15:19:00,
2012-12-08 09:24:00,51.8,51.8,29.89,WSW,237,0.0,0.0,100,0.00,,,0.00,VWS V13.01,2012-12-08 15:24:00,
2012-12-08 09:29:00,52.0,52.0,29.89,SW,232,0.0,0.0,100,0.00,,,0.00,VWS V13.01,2012-12-08 15:29:00,
2012-12-08 09:34:00,52.0,52.0,29.89,WSW,239,2.7,2.7,100,0.00,,,0.00,VWS V13.01,2012-12-08 15:34:00,
2012-12-08 09:39:00,52.1,52.1,29.89,West,260,0.0,0.0,100,0.00,,,0.00,VWS V13.01,2012-12-08 15:39:00,
2012-12-08 09:44:00,52.1,52.1,29.89,SW,229,0.0,0.0,100,0.00,,,0.00,VWS V13.01,2012-12-08 15:44:00,
2012-12-08 09:49:00,52.1,52.1,29.89,WSW,244,0.0,0.0,100,0.00,,,0.00,VWS V13.01,2012-12-08 15:49:00,
2012-12-08 09:54:00,52.3,52.3,29.89,West,259,0.0,0.0,100,0.00,,,0.00,VWS V13.01,2012-12-08 15:54:00,
2012-12-08 09:59:00,52.5,52.5,29.89,West,270,0.0,0.0,100,0.00,,,0.00,VWS V13.01,2012-12-08 15:59:00,
2012-12-08 10:04:00,52.5,52.5,29.89,West,270,0.0,0.0,100,0.00,,,0.00,VWS V13.01,2012-12-08 16:04:00,
2012-12-08 10:09:00,52.5,52.5,29.89,West,270,0.0,0.0,100,0.00,,,0.00,VWS V13.01,2012-12-08 16:09:00,
2012-12-08 10:14:00,52.5,52.5,29.89,West,270,0.0,0.0,100,0.00,,,0.00,VWS V13.01,2012-12-08 16:14:00,
2012-12-08 10:19:00,52.7,52.7,29.89,West,270,0.0,0.0,100,0.00,,,0.00,VWS V13.01,2012-12-08 16:19:00,
2012-12-08 10:24:00,52.9,52.9,29.89,West,270,0.0,0.0,100,0.00,,,0.00,VWS V13.01,2012-12-08 16:24:00,
2012-12-08 10:29:00,53.0,53.0,29.89,NNE,30,0.0,2.2,100,0.00,,,0.00,VWS V13.01,2012-12-08 16:29:00,
2012-12-08 10:34:00,53.0,53.0,29.89,NNE,30,0.0,0.0,100,0.00,,,0.00,VWS V13.01,2012-12-08 16:34:00,
2012-12-08 10:39:00,53.0,53.0,29.89,NNE,30,0.0,0.0,100,0.00,,,0.00,VWS V13.01,2012-12-08 16:39:00,
2012-12-08 10:44:00,53.2,53.2,29.89,NNE,30,0.0,0.0,100,0.00,,,0.00,VWS V13.01,2012-12-08 16:44:00,
2012-12-08 10:49:00,53.4,53.4,29.89,North,6,0.0,0.0,100,0.00,,,0.00,VWS V13.01,2012-12-08 16:49:00,
2012-12-08 10:54:00,53.2,53.2,29.89,North,349,0.0,0.0,100,0.00,,,0.00,VWS V13.01,2012-12-08 16:54:00,
2012-12-08 10:59:00,53.2,53.2,29.89,NE,40,3.6,3.6,100,0.00,,,0.00,VWS V13.01,2012-12-08 16:59:00,
2012-12-08 11:04:00,53.2,53.2,29.89,NE,39,2.7,2.7,100,0.00,,,0.00,VWS V13.01,2012-12-08 17:04:00,
2012-12-08 11:09:00,53.2,53.2,29.89,NE,45,0.0,0.0,100,0.00,,,0.00,VWS V13.01,2012-12-08 17:09:00,
2012-12-08 11:14:00,53.2,53.2,29.89,NNE,28,3.1,3.1,100,0.00,,,0.00,VWS V13.01,2012-12-08 17:14:00,
2012-12-08 11:19:00,53.2,53.2,29.89,NNE,24,0.0,0.0,100,0.00,,,0.00,VWS V13.01,2012-12-08 17:19:00,
2012-12-08 11:24:00,53.4,53.4,29.89,NNE,33,0.0,0.0,100,0.00,,,0.00,VWS V13.01,2012-12-08 17:24:00,
2012-12-08 11:29:00,53.6,53.6,29.86,NNE,28,0.0,0.0,100,0.00,,,0.00,VWS V13.01,2012-12-08 17:29:00,
2012-12-08 11:34:00,53.6,53.6,29.86,East,90,0.0,3.1,100,0.00,,,0.00,VWS V13.01,2012-12-08 17:34:00,
2012-12-08 11:39:00,53.8,53.8,29.86,East,79,0.0,0.0,100,0.00,,,0.00,VWS V13.01,2012-12-08 17:39:00,
2012-12-08 11:44:00,53.8,53.8,29.86,NE,56,0.0,0.0,100,0.00,,,0.00,VWS V13.01,2012-12-08 17:44:00,
2012-12-08 11:49:00,53.8,53.8,29.86,ENE,58,0.0,0.0,100,0.00,,,0.00,VWS V13.01,2012-12-08 17:49:00,
2012-12-08 11:54:00,53.8,53.8,29.86,East,86,3.1,3.1,100,0.00,,,0.00,VWS V13.01,2012-12-08 17:54:00,
2012-12-08 11:59:00,53.9,53.9,29.86,ENE,69,0.0,0.0,100,0.00,,,0.00,VWS V13.01,2012-12-08 17:59:00,
2012-12-08 12:04:00,54.1,54.1,29.86,ENE,66,0.0,0.0,100,0.00,,,0.00,VWS V13.01,2012-12-08 18:04:00,
2012-12-08 12:09:00,54.3,54.3,29.86,East,79,0.0,0.0,100,0.00,,,0.00,VWS V13.01,2012-12-08 18:09:00,
2012-12-08 12:14:00,54.5,54.5,29.86,ENE,78,0.0,0.0,100,0.00,,,0.00,VWS V13.01,2012-12-08 18:14:00,
2012-12-08 12:19:00,54.5,54.5,29.86,NNE,20,0.0,0.0,100,0.00,,,0.00,VWS V13.01,2012-12-08 18:19:00,
2012-12-08 12:24:00,54.8,54.8,29.86,NE,40,0.0,0.0,100,0.00,,,0.00,VWS V13.01,2012-12-08 18:24:00,
2012-12-08 12:29:00,55.0,52.7,29.86,NNE,26,2.7,3.6,92,0.00,,,0.00,VWS V13.01,2012-12-08 18:29:00,
2012-12-08 12:34:00,55.2,52.6,29.86,NNW,336,0.0,0.0,91,0.00,,,0.00,VWS V13.01,2012-12-08 18:34:00,
2012-12-08 12:38:00,55.4,52.2,29.86,NE,35,3.1,3.6,89,0.00,,,0.00,VWS V13.01,2012-12-08 18:38:00,
2012-12-08 12:43:00,55.6,51.8,29.86,NNE,24,2.7,3.1,87,0.00,,,0.00,VWS V13.01,2012-12-08 18:43:00,
2012-12-08 12:48:00,55.7,51.6,29.83,ENE,69,2.2,4.0,86,0.00,,,0.00,VWS V13.01,2012-12-08 18:48:00,
2012-12-08 12:53:00,55.9,51.2,29.83,NNE,28,0.0,4.0,84,0.00,,,0.00,VWS V13.01,2012-12-08 18:53:00,
2012-12-08 12:58:00,56.5,51.4,29.83,North,7,3.6,4.0,83,0.00,,,0.00,VWS V13.01,2012-12-08 18:58:00,
2012-12-08 13:03:00,56.6,50.5,29.83,NNW,327,4.0,4.0,80,0.00,,,0.00,VWS V13.01,2012-12-08 19:03:00,
2012-12-08 13:08:00,57.0,49.5,29.83,NNE,30,4.9,5.4,76,0.00,,,0.00,VWS V13.01,2012-12-08 19:08:00,
2012-12-08 13:13:00,57.4,49.9,29.83,NNE,29,4.0,4.0,76,0.00,,,0.00,VWS V13.01,2012-12-08 19:13:00,
2012-12-08 13:18:00,57.7,49.5,29.83,North,357,4.9,5.4,74,0.00,,,0.00,VWS V13.01,2012-12-08 19:18:00,
2012-12-08 13:23:00,58.1,50.6,29.83,NNE,17,3.6,4.0,76,0.00,,,0.00,VWS V13.01,2012-12-08 19:23:00,
2012-12-08 13:28:00,58.3,49.3,29.83,NW,322,3.1,3.1,72,0.00,,,0.00,VWS V13.01,2012-12-08 19:28:00,
2012-12-08 13:33:00,58.3,49.3,29.83,NW,305,3.6,4.9,72,0.00,,,0.00,VWS V13.01,2012-12-08 19:33:00,
2012-12-08 13:38:00,58.4,49.5,29.83,WNW,293,3.6,4.0,72,0.00,,,0.00,VWS V13.01,2012-12-08 19:38:00,
2012-12-08 13:43:00,59.0,50.0,29.83,East,84,0.0,0.0,72,0.00,,,0.00,VWS V13.01,2012-12-08 19:43:00,
2012-12-08 13:48:00,59.5,49.0,29.83,WNW,285,5.4,5.4,68,0.00,,,0.00,VWS V13.01,2012-12-08 19:48:00,
2012-12-08 13:53:00,59.7,49.5,29.83,ESE,107,3.1,3.1,69,0.00,,,0.00,VWS V13.01,2012-12-08 19:53:00,
2012-12-08 13:58:00,60.1,49.9,29.83,NNE,21,2.2,3.6,69,0.00,,,0.00,VWS V13.01,2012-12-08 19:58:00,
2012-12-08 14:03:00,60.2,49.7,29.83,NE,43,3.6,4.9,68,0.00,,,0.00,VWS V13.01,2012-12-08 20:03:00,
2012-12-08 14:08:00,60.2,49.7,29.83,ENE,66,0.0,0.0,68,0.00,,,0.00,VWS V13.01,2012-12-08 20:08:00,
2012-12-08 14:13:00,60.1,49.1,29.80,NE,45,0.0,2.2,67,0.00,,,0.00,VWS V13.01,2012-12-08 20:13:00,
2012-12-08 14:18:00,60.1,49.1,29.80,NE,45,0.0,0.0,67,0.00,,,0.00,VWS V13.01,2012-12-08 20:18:00,
2012-12-08 14:23:00,60.2,49.7,29.80,NE,45,0.0,0.0,68,0.00,,,0.00,VWS V13.01,2012-12-08 20:23:00,
2012-12-08 14:28:00,60.2,49.2,29.80,NE,53,3.1,5.4,67,0.00,,,0.00,VWS V13.01,2012-12-08 20:28:00,
2012-12-08 14:33:00,60.2,49.2,29.80,NNE,17,3.1,3.1,67,0.00,,,0.00,VWS V13.01,2012-12-08 20:33:00,
2012-12-08 14:38:00,60.6,49.2,29.80,NNE,25,0.0,0.0,66,0.00,,,0.00,VWS V13.01,2012-12-08 20:38:00,
2012-12-08 14:43:00,61.0,49.1,29.80,WNW,296,0.0,0.0,65,0.00,,,0.00,VWS V13.01,2012-12-08 20:43:00,
2012-12-08 14:48:00,61.1,49.7,29.80,NW,316,0.0,0.0,66,0.00,,,0.00,VWS V13.01,2012-12-08 20:48:00,
2012-12-08 14:53:00,61.3,49.9,29.80,ESE,106,3.1,6.3,66,0.00,,,0.00,VWS V13.01,2012-12-08 20:53:00,
2012-12-08 14:58:00,61.7,50.2,29.80,ENE,60,4.0,4.5,66,0.00,,,0.00,VWS V13.01,2012-12-08 20:58:00,
2012-12-08 15:03:00,61.7,49.8,29.80,NE,44,5.4,6.3,65,0.00,,,0.00,VWS V13.01,2012-12-08 21:03:00,
2012-12-08 15:08:00,61.5,50.0,29.80,NE,45,3.1,4.0,66,0.00,,,0.00,VWS V13.01,2012-12-08 21:08:00,
2012-12-08 15:13:00,61.7,50.2,29.78,NE,40,3.1,3.6,66,0.00,,,0.00,VWS V13.01,2012-12-08 21:13:00,
2012-12-08 15:18:00,61.9,50.0,29.78,East,81,5.4,5.4,65,0.00,,,0.00,VWS V13.01,2012-12-08 21:18:00,
2012-12-08 15:23:00,62.0,50.2,29.78,NNE,29,2.7,3.1,65,0.00,,,0.00,VWS V13.01,2012-12-08 21:23:00,
2012-12-08 15:28:00,61.9,50.0,29.78,NE,46,6.3,6.3,65,0.00,,,0.00,VWS V13.01,2012-12-08 21:28:00,
2012-12-08 15:33:00,61.5,49.6,29.80,ENE,68,3.6,3.6,65,0.00,,,0.00,VWS V13.01,2012-12-08 21:33:00,
2012-12-08 15:38:00,61.5,49.6,29.80,ENE,73,2.7,2.7,65,0.00,,,0.00,VWS V13.01,2012-12-08 21:38:00,
2012-12-08 15:43:00,61.5,49.6,29.80,NNE,31,3.1,3.6,65,0.00,,,0.00,VWS V13.01,2012-12-08 21:43:00,
2012-12-08 15:48:00,61.3,49.9,29.80,NNE,26,3.1,3.1,66,0.00,,,0.00,VWS V13.01,2012-12-08 21:48:00,
2012-12-08 15:53:00,61.5,50.0,29.80,NNE,30,3.1,3.1,66,0.00,,,0.00,VWS V13.01,2012-12-08 21:53:00,
2012-12-08 15:58:00,61.5,49.6,29.80,NNE,32,4.0,4.0,65,0.00,,,0.00,VWS V13.01,2012-12-08 21:58:00,
2012-12-08 16:03:00,61.3,49.9,29.80,NNE,28,3.6,4.0,66,0.00,,,0.00,VWS V13.01,2012-12-08 22:03:00,
2012-12-08 16:08:00,61.1,49.7,29.80,NE,46,2.7,2.7,66,0.00,,,0.00,VWS V13.01,2012-12-08 22:08:00,
2012-12-08 16:13:00,61.1,49.7,29.80,ENE,58,2.7,2.7,66,0.00,,,0.00,VWS V13.01,2012-12-08 22:13:00,
2012-12-08 16:18:00,61.1,49.7,29.80,ENE,58,0.0,0.0,66,0.00,,,0.00,VWS V13.01,2012-12-08 22:18:00,
2012-12-08 16:23:00,61.1,49.7,29.80,NE,54,2.7,2.7,66,0.00,,,0.00,VWS V13.01,2012-12-08 22:23:00,
2012-12-08 16:28:00,61.0,49.5,29.80,ENE,63,2.7,3.1,66,0.00,,,0.00,VWS V13.01,2012-12-08 22:28:00,
2012-12-08 16:33:00,60.8,49.4,29.80,NE,49,0.0,0.0,66,0.00,,,0.00,VWS V13.01,2012-12-08 22:33:00,
2012-12-08 16:38:00,60.6,49.6,29.80,NE,47,2.2,2.7,67,0.00,,,0.00,VWS V13.01,2012-12-08 22:38:00,
2012-12-08 16:43:00,60.2,49.7,29.80,ENE,63,3.1,3.1,68,0.00,,,0.00,VWS V13.01,2012-12-08 22:43:00,
2012-12-08 16:48:00,60.1,49.5,29.80,ENE,57,2.7,2.7,68,0.00,,,0.00,VWS V13.01,2012-12-08 22:48:00,
2012-12-08 16:53:00,59.9,49.7,29.80,ENE,61,2.7,3.1,69,0.00,,,0.00,VWS V13.01,2012-12-08 22:53:00,
2012-12-08 16:58:00,59.7,49.5,29.80,ENE,60,2.7,2.7,69,0.00,,,0.00,VWS V13.01,2012-12-08 22:58:00,
2012-12-08 17:03:00,59.3,49.2,29.80,ENE,60,0.0,0.0,69,0.00,,,0.00,VWS V13.01,2012-12-08 23:03:00,
2012-12-08 17:08:00,59.2,49.4,29.80,ENE,60,0.0,0.0,70,0.00,,,0.00,VWS V13.01,2012-12-08 23:08:00,
2012-12-08 17:13:00,59.0,49.6,29.80,ENE,60,0.0,0.0,71,0.00,,,0.00,VWS V13.01,2012-12-08 23:13:00,
2012-12-08 17:18:00,58.6,49.6,29.80,ENE,64,0.0,0.0,72,0.00,,,0.00,VWS V13.01,2012-12-08 23:18:00,
2012-12-08 17:23:00,58.4,49.8,29.80,ENE,77,0.0,0.0,73,0.00,,,0.00,VWS V13.01,2012-12-08 23:23:00,
2012-12-08 17:28:00,58.1,49.5,29.80,ENE,77,0.0,0.0,73,0.00,,,0.00,VWS V13.01,2012-12-08 23:28:00,
2012-12-08 17:33:00,57.4,49.2,29.80,ENE,59,0.0,0.0,74,0.00,,,0.00,VWS V13.01,2012-12-08 23:33:00,
2012-12-08 17:38:00,56.6,49.5,29.80,ENE,59,0.0,0.0,77,0.00,,,0.00,VWS V13.01,2012-12-08 23:38:00,
2012-12-08 17:43:00,55.9,49.2,29.80,ENE,59,0.0,0.0,78,0.00,,,0.00,VWS V13.01,2012-12-08 23:43:00,
2012-12-08 17:48:00,55.6,49.5,29.80,ENE,59,0.0,0.0,80,0.00,,,0.00,VWS V13.01,2012-12-08 23:48:00,
2012-12-08 17:53:00,55.2,49.8,29.80,ENE,59,0.0,0.0,82,0.00,,,0.00,VWS V13.01,2012-12-08 23:53:00,
2012-12-08 17:58:00,54.8,49.8,29.80,ENE,59,0.0,0.0,83,0.00,,,0.00,VWS V13.01,2012-12-08 23:58:00,
2012-12-08 18:03:00,54.5,50.1,29.80,ENE,59,0.0,0.0,85,0.00,,,0.00,VWS V13.01,2012-12-09 00:03:00,
2012-12-08 18:08:00,54.3,50.2,29.80,ENE,59,0.0,0.0,86,0.00,,,0.00,VWS V13.01,2012-12-09 00:08:00,
2012-12-08 18:13:00,54.7,51.5,29.80,NNW,335,0.0,0.0,89,0.00,,,0.00,VWS V13.01,2012-12-09 00:13:00,
2012-12-08 18:18:00,55.2,51.7,29.80,NNW,335,0.0,0.0,88,0.00,,,0.00,VWS V13.01,2012-12-09 00:18:00,
2012-12-08 18:23:00,55.4,50.6,29.80,NNW,335,0.0,0.0,84,0.00,,,0.00,VWS V13.01,2012-12-09 00:23:00,
2012-12-08 18:28:00,55.4,51.3,29.80,North,352,0.0,0.0,86,0.00,,,0.00,VWS V13.01,2012-12-09 00:28:00,
2012-12-08 18:33:00,55.4,51.3,29.80,NNE,23,0.0,0.0,86,0.00,,,0.00,VWS V13.01,2012-12-09 00:33:00,
2012-12-08 18:38:00,55.2,50.8,29.80,ENE,73,0.0,0.0,85,0.00,,,0.00,VWS V13.01,2012-12-09 00:38:00,
2012-12-08 18:43:00,54.8,50.4,29.80,ENE,73,0.0,0.0,85,0.00,,,0.00,VWS V13.01,2012-12-09 00:43:00,
2012-12-08 18:48:00,54.7,50.9,29.80,ENE,73,0.0,0.0,87,0.00,,,0.00,VWS V13.01,2012-12-09 00:48:00,
2012-12-08 18:53:00,54.8,51.4,29.80,ENE,73,0.0,0.0,88,0.00,,,0.00,VWS V13.01,2012-12-09 00:53:00,
2012-12-08 18:58:00,54.8,51.7,29.80,NE,55,0.0,0.0,89,0.00,,,0.00,VWS V13.01,2012-12-09 00:58:00,
2012-12-08 19:03:00,55.0,51.5,29.80,NE,55,0.0,0.0,88,0.00,,,0.00,VWS V13.01,2012-12-09 01:03:00,
2012-12-08 19:08:00,55.0,51.5,29.80,NE,55,0.0,0.0,88,0.00,,,0.00,VWS V13.01,2012-12-09 01:08:00,
2012-12-08 19:13:00,55.2,51.7,29.80,North,355,0.0,0.0,88,0.00,,,0.00,VWS V13.01,2012-12-09 01:13:00,
2012-12-08 19:18:00,55.0,51.8,29.80,North,354,0.0,0.0,89,0.00,,,0.00,VWS V13.01,2012-12-09 01:18:00,
2012-12-08 19:23:00,55.2,51.7,29.80,North,354,0.0,0.0,88,0.00,,,0.00,VWS V13.01,2012-12-09 01:23:00,
2012-12-08 19:28:00,55.2,51.7,29.80,North,354,0.0,0.0,88,0.00,,,0.00,VWS V13.01,2012-12-09 01:28:00,
2012-12-08 19:33:00,55.2,51.7,29.80,North,354,0.0,0.0,88,0.00,,,0.00,VWS V13.01,2012-12-09 01:33:00,
2012-12-08 19:38:00,55.2,51.7,29.80,North,354,0.0,0.0,88,0.00,,,0.00,VWS V13.01,2012-12-09 01:38:00,
2012-12-08 19:43:00,55.4,52.2,29.80,North,354,0.0,0.0,89,0.00,,,0.00,VWS V13.01,2012-12-09 01:43:00,
2012-12-08 19:48:00,55.4,51.9,29.80,North,354,0.0,0.0,88,0.00,,,0.00,VWS V13.01,2012-12-09 01:48:00,
2012-12-08 19:53:00,55.6,52.4,29.80,North,354,0.0,0.0,89,0.00,,,0.00,VWS V13.01,2012-12-09 01:53:00,
2012-12-08 19:58:00,55.6,52.4,29.80,North,354,0.0,0.0,89,0.00,,,0.00,VWS V13.01,2012-12-09 01:58:00,
2012-12-08 20:03:00,55.7,52.5,29.80,North,354,0.0,0.0,89,0.00,,,0.00,VWS V13.01,2012-12-09 02:03:00,
2012-12-08 20:08:00,55.7,52.2,29.80,North,354,0.0,0.0,88,0.00,,,0.00,VWS V13.01,2012-12-09 02:08:00,
2012-12-08 20:13:00,55.9,52.4,29.80,North,354,0.0,0.0,88,0.00,,,0.00,VWS V13.01,2012-12-09 02:13:00,
2012-12-08 20:18:00,56.1,52.6,29.80,North,354,0.0,0.0,88,0.00,,,0.00,VWS V13.01,2012-12-09 02:18:00,
2012-12-08 20:23:00,56.1,52.6,29.80,North,8,0.0,0.0,88,0.00,,,0.00,VWS V13.01,2012-12-09 02:23:00,
2012-12-08 20:28:00,56.5,53.0,29.80,NNE,16,0.0,0.0,88,0.00,,,0.00,VWS V13.01,2012-12-09 02:28:00,
2012-12-08 20:33:00,56.6,52.8,29.80,NNE,21,0.0,0.0,87,0.00,,,0.00,VWS V13.01,2012-12-09 02:33:00,
2012-12-08 20:38:00,56.8,53.0,29.80,North,5,0.0,0.0,87,0.00,,,0.00,VWS V13.01,2012-12-09 02:38:00,
2012-12-08 20:42:00,57.0,53.2,29.80,NNE,32,3.1,4.0,87,0.00,,,0.00,VWS V13.01,2012-12-09 02:42:00,
2012-12-08 20:47:00,57.4,53.2,29.80,NE,39,3.1,3.1,86,0.00,,,0.00,VWS V13.01,2012-12-09 02:47:00,
2012-12-08 20:52:00,57.5,53.1,29.80,NE,41,2.7,3.1,85,0.00,,,0.00,VWS V13.01,2012-12-09 02:52:00,
2012-12-08 20:57:00,57.7,53.2,29.80,NNE,25,0.0,0.0,85,0.00,,,0.00,VWS V13.01,2012-12-09 02:57:00,
2012-12-08 21:02:00,57.7,53.2,29.80,NNE,24,0.0,0.0,85,0.00,,,0.00,VWS V13.01,2012-12-09 03:02:00,
2012-12-08 21:07:00,57.9,53.4,29.80,NNE,30,0.0,0.0,85,0.00,,,0.00,VWS V13.01,2012-12-09 03:07:00,
2012-12-08 21:12:00,58.1,53.6,29.80,NNE,29,0.0,0.0,85,0.00,,,0.00,VWS V13.01,2012-12-09 03:12:00,
2012-12-08 21:17:00,58.1,53.6,29.80,NNE,12,0.0,0.0,85,0.00,,,0.00,VWS V13.01,2012-12-09 03:17:00,
2012-12-08 21:22:00,58.3,54.1,29.80,NE,38,3.1,3.1,86,0.00,,,0.00,VWS V13.01,2012-12-09 03:22:00,
2012-12-08 21:27:00,58.4,54.3,29.80,NE,46,3.6,3.6,86,0.00,,,0.00,VWS V13.01,2012-12-09 03:27:00,
2012-12-08 21:32:00,58.6,54.1,29.80,NNE,30,2.7,3.1,85,0.00,,,0.00,VWS V13.01,2012-12-09 03:32:00,
2012-12-08 21:37:00,58.6,54.1,29.80,NE,44,0.0,0.0,85,0.00,,,0.00,VWS V13.01,2012-12-09 03:37:00,
2012-12-08 21:42:00,58.6,54.1,29.80,NNE,28,3.1,3.1,85,0.00,,,0.00,VWS V13.01,2012-12-09 03:42:00,
2012-12-08 21:47:00,58.4,54.3,29.80,NE,39,3.1,3.1,86,0.00,,,0.00,VWS V13.01,2012-12-09 03:47:00,
2012-12-08 21:52:00,58.6,54.5,29.80,NE,39,3.6,3.6,86,0.00,,,0.00,VWS V13.01,2012-12-09 03:52:00,
2012-12-08 21:57:00,58.6,54.5,29.80,NE,39,3.1,3.6,86,0.00,,,0.00,VWS V13.01,2012-12-09 03:57:00,
2012-12-08 22:02:00,58.6,54.5,29.80,NE,47,4.0,4.0,86,0.00,,,0.00,VWS V13.01,2012-12-09 04:02:00,
2012-12-08 22:07:00,58.6,54.5,29.80,NE,37,2.7,2.7,86,0.00,,,0.00,VWS V13.01,2012-12-09 04:07:00,
2012-12-08 22:12:00,58.8,54.6,29.80,NNE,33,2.7,3.6,86,0.00,,,0.00,VWS V13.01,2012-12-09 04:12:00,
2012-12-08 22:17:00,58.6,54.5,29.80,NE,36,2.7,3.6,86,0.00,,,0.00,VWS V13.01,2012-12-09 04:17:00,
2012-12-08 22:22:00,58.6,54.8,29.80,NNE,31,3.1,3.1,87,0.00,,,0.00,VWS V13.01,2012-12-09 04:22:00,
2012-12-08 22:27:00,58.6,55.1,29.80,NE,42,3.1,3.6,88,0.00,,,0.00,VWS V13.01,2012-12-09 04:27:00,
2012-12-08 22:32:00,58.6,55.1,29.80,NNE,33,3.6,4.0,88,0.00,,,0.00,VWS V13.01,2012-12-09 04:32:00,
2012-12-08 22:37:00,58.6,55.1,29.80,NNE,31,2.2,3.6,88,0.00,,,0.00,VWS V13.01,2012-12-09 04:37:00,
2012-12-08 22:42:00,58.6,55.1,29.80,NE,38,3.1,3.1,88,0.00,,,0.00,VWS V13.01,2012-12-09 04:42:00,
2012-12-08 22:47:00,58.6,55.4,29.80,ENE,61,0.0,0.0,89,0.00,,,0.00,VWS V13.01,2012-12-09 04:47:00,
2012-12-08 22:52:00,58.6,55.4,29.80,NE,38,4.0,4.0,89,0.00,,,0.00,VWS V13.01,2012-12-09 04:52:00,
2012-12-08 22:57:00,58.6,55.4,29.80,NE,39,0.0,0.0,89,0.00,,,0.00,VWS V13.01,2012-12-09 04:57:00,
2012-12-08 23:00:00,58.6,55.4,29.78,NE,44,0.0,0.0,89,0.00,,,0.00,VWS V13.01,2012-12-09 05:00:00,
2012-12-08 23:01:00,58.6,55.4,29.78,ENE,68,0.0,0.0,89,0.00,,,0.00,VWS V13.01,2012-12-09 05:01:00,
2012-12-08 23:05:00,58.4,55.5,29.78,NE,44,0.0,3.1,90,0.00,,,0.00,VWS V13.01,2012-12-09 05:05:00,
2012-12-08 23:10:00,58.4,55.8,29.78,NE,40,0.0,0.0,91,0.00,,,0.00,VWS V13.01,2012-12-09 05:10:00,
2012-12-08 23:15:00,58.3,55.7,29.78,NE,40,0.0,0.0,91,0.00,,,0.00,VWS V13.01,2012-12-09 05:15:00,
2012-12-08 23:20:00,58.3,56.0,29.78,NE,53,0.0,0.0,92,0.00,,,0.00,VWS V13.01,2012-12-09 05:20:00,
2012-12-08 23:25:00,58.3,56.0,29.78,NE,53,0.0,0.0,92,0.00,,,0.00,VWS V13.01,2012-12-09 05:25:00,
2012-12-08 23:30:00,58.3,56.2,29.78,NE,48,3.1,3.1,93,0.00,,,0.00,VWS V13.01,2012-12-09 05:30:00,
2012-12-08 23:35:00,58.4,56.7,29.78,NE,42,2.7,2.7,94,0.00,,,0.00,VWS V13.01,2012-12-09 05:35:00,
2012-12-08 23:40:00,58.4,56.4,29.78,NE,38,2.7,2.7,93,0.00,,,0.00,VWS V13.01,2012-12-09 05:40:00,
2012-12-08 23:45:00,58.4,56.4,29.78,NE,40,3.1,3.6,93,0.00,,,0.00,VWS V13.01,2012-12-09 05:45:00,
2012-12-08 23:50:00,58.6,56.6,29.78,NNE,29,2.2,3.1,93,0.00,,,0.00,VWS V13.01,2012-12-09 05:50:00,
2012-12-08 23:55:00,58.6,56.6,29.78,NE,46,2.2,2.2,93,0.00,,,0.00,VWS V13.01,2012-12-09 05:55:00,